This is the latest recevied weather packets stored in our database for station/object W1REE. If no packets are shown the sender has not sent any weather packets the latest 1 day(s).
| Time | Temp. | Humidity | Pressure | Rain* | Wind** | Luminosity | Snow |
|---|---|---|---|---|---|---|---|
| 1778077737 | 0° C | 87% | 1019.9 hPa | 0 mm | - | 48 W/m² | - |
| 1778076225 | 0° C | 90% | 1019.8 hPa | 0 mm | - | 57 W/m² | - |
| 1778075922 | 0° C | 89% | 1019.5 hPa | 0 mm | - | 53 W/m² | - |
| 1778075315 | 0° C | 89% | 1019.5 hPa | 0 mm | - | 65 W/m² | - |
| 1778074102 | -0.56° C | 90% | 1019.3 hPa | 0 mm | - | 43 W/m² | - |
| 1778073497 | -0.56° C | 92% | 1019 hPa | 0 mm | - | 25 W/m² | - |
| 1778073193 | -0.56° C | 93% | 1019.2 hPa | 0 mm | - | 24 W/m² | - |
| 1778072285 | -1.11° C | 95% | 1018.9 hPa | 0 mm | - | 21 W/m² | - |
| 1778071681 | -1.11° C | 95% | 1018.9 hPa | 0 mm | - | 13 W/m² | - |
| 1778070774 | -0.56° C | 94% | 1018.6 hPa | 0 mm | - | 4 W/m² | - |
| 1778069259 | -1.11° C | 94% | 1018 hPa | 0 mm | - | 1 W/m² | - |
| 1778067446 | -0.56° C | 94% | 1018 hPa | 0 mm | - | 0 W/m² | - |
| 1778067143 | -0.56° C | 94% | 1018 hPa | 0 mm | - | 0 W/m² | - |
| 1778066537 | -0.56° C | 94% | 1017.8 hPa | 0 mm | - | 0 W/m² | - |
| 1778066234 | -0.56° C | 93% | 1018 hPa | 0 mm | - | 0 W/m² | - |
| 1778065629 | -0.56° C | 93% | 1017.6 hPa | 0 mm | - | 0 W/m² | - |
| 1778064418 | -0.56° C | 94% | 1017.6 hPa | 0 mm | - | 0 W/m² | - |
| 1778064115 | -0.56° C | 95% | 1017.5 hPa | 0 mm | - | 0 W/m² | - |
| 1778062601 | -0.56° C | 94% | 1017.2 hPa | 0 mm | - | 0 W/m² | - |
| 1778062298 | -0.56° C | 93% | 1017.4 hPa | 0 mm | - | 0 W/m² | - |
| 1778061694 | 0° C | 92% | 1017.5 hPa | 0 mm | - | 0 W/m² | - |
| 1778061089 | 0° C | 92% | 1017.4 hPa | 0 mm | - | 0 W/m² | - |
| 1778060484 | 0° C | 92% | 1017.2 hPa | 0 mm | - | 0 W/m² | - |
| 1778059577 | 0° C | 91% | 1017.5 hPa | 0 mm | - | 0 W/m² | - |
| 1778059274 | 0° C | 89% | 1017.4 hPa | 0 mm | - | 0 W/m² | - |
* Rain latest hour (hover to see other rain measurements)
** Current wind speed in m/s (hover to see current wind gust speed)